KDABKJQF

Guest
Details From KDAB - Daytona Beach Intl
To KJQF - Concord Rgnl
Flight Number -
Tags Generated
Created
Modified
Stats Distance 373 nm / 691 km
Max Altitude 0 ft / 0 m
Waypoints 3
Social Downloads 1
Likes 0
Share VATSIM

Download

Looking for another format? Having issues loading an existing format? Contact us
Advertisement - Login to hide

Notes

Generated

Route

KDAB WEGTI KJQF

ID Type Via Altitude Latitude Longitude Leg Dist Tot Dist Heading (true) Name
O KDAB APT - 0 ft / 0 m 29.17603˚ -81.05684˚ - 0 nm - Daytona Beach Intl
WEGTI FIX - 0 ft / 0 m 35.33692˚ -80.72058˚ 370 nm 370 nm 3° / 3° -
O KJQF APT - 0 ft / 0 m 35.37777˚ -80.71139˚ 2 nm 372 nm 10° / 10° -

Altitude Profile

Advertisement - Login to hide

Weather


0- 5 10 15 20 25 30 35+ Temperature / ° C

Clouds and Precipitation
Forecast for 2018-05-22 06:00 UTC. Updated 2 hours ago

Ground ~20,000 ft ~40,000 ft Winds

KDAB

Details ICAO KDAB (DAB)
Name Daytona Beach Intl
Region United States
Timezone America/New_York (UTC-4.0)
Stats Elevation 34 ft / 10 m (AMSL)
Location 29.179918° -81.055946°
Runways 3
Magnetic Variation 6.711° W

METAR

KDAB 220553Z VRB04KT 9SM FEW020 SCT140 BKN210 23/23 A3008 RMK AO2 SLP184 T02330228 10239 20233 58012

Decode

TAF

TAF KDAB 220541Z 2206/2306 11003KT P6SM VCSH FEW015 SCT150 OVC200 FM221400 13008KT P6SM VCSH SCT020 BKN040 OVC060 TEMPO 2214/2218 2SM SHRA BKN025 FM230200 12004KT P6SM FEW030 BKN100 OVC250

Decode

Departure Runways

ID Width Length Bearing (true) Bearing (mag) Surface Threshold Offset Overrun Length
07L 151 ft / 46 m 10,492 ft / 3,198 m 65.10° 71.81° Asphalt 689 ft / 210 m 0 ft / 0 m
07R 98 ft / 30 m 3,193 ft / 973 m 65.04° 71.75° Asphalt 0 ft / 0 m 0 ft / 0 m
16 151 ft / 46 m 6,018 ft / 1,834 m 157.27° 163.98° Asphalt 0 ft / 0 m 200 ft / 61 m
25L 98 ft / 30 m 3,193 ft / 973 m 245.04° 251.75° Asphalt 0 ft / 0 m 0 ft / 0 m
25R 151 ft / 46 m 10,492 ft / 3,198 m 245.12° 251.83° Asphalt 0 ft / 0 m 0 ft / 0 m
34 151 ft / 46 m 6,018 ft / 1,834 m 337.27° 343.98° Asphalt 0 ft / 0 m 200 ft / 61 m

KJQF

Details ICAO KJQF
Name Concord Rgnl
Region United States
Timezone America/New_York (UTC-4.0)
Stats Elevation 690 ft / 210 m (AMSL)
Location 35.387774° -80.709133°
Runways 1
Magnetic Variation 7.896° W

METAR

KJQF 220635Z AUTO 00000KT 10SM CLR 20/19 A3015 RMK AO2 P0001

Decode

TAF

Not found

Destination Runways

ID Width Length Bearing (true) Bearing (mag) Surface Threshold Offset Overrun Length
02 98 ft / 30 m 7,419 ft / 2,261 m 10.42° 18.32° Asphalt 0 ft / 0 m 0 ft / 0 m
20 98 ft / 30 m 7,419 ft / 2,261 m 190.42° 198.32° Asphalt 650 ft / 198 m 0 ft / 0 m

Approach Navaids

Runway Type Ident Frequency Range Bearing (true) Bearing (mag) Slope Elevation
20 Localiser IJQF 111.95 MHz 18 nm / 33 km 190.40° 198.30° - 690 ft / 210 m (AMSL)
20 Glidescope IJQF 111.95 MHz 10 nm / 19 km 190.40° 198.30° 3.00° 690 ft / 210 m (AMSL)
20 DME IJQF 111.95 MHz 18 nm / 33 km - - - 690 ft / 210 m (AMSL)

Popular Alternatives